This is the latest recevied weather packets stored in our database for station/object N4TLC. If no packets are shown the sender has not sent any weather packets the latest 1 day(s).
| Time | Temp. | Humidity | Pressure | Rain* | Wind** | Luminosity | Snow |
|---|---|---|---|---|---|---|---|
| 1778015991 | 27.22° C | 30% | 1015.4 hPa | 0 mm | 0.89 m/s, 222° | 544 W/m² | - |
| 1778015689 | 27.22° C | 30% | 1015.4 hPa | 0 mm | 2.68 m/s, 251° | 625 W/m² | - |
| 1778015385 | 27.22° C | 30% | 1015.6 hPa | 0 mm | 0.89 m/s, 194° | 377 W/m² | - |
| 1778015082 | 27.22° C | 31% | 1015.6 hPa | 0 mm | 0.89 m/s, 155° | 523 W/m² | - |
| 1778014779 | 26.67° C | 29% | 1015.5 hPa | 0 mm | 1.79 m/s, 190° | 467 W/m² | - |
| 1778014478 | 27.22° C | 29% | 1015.5 hPa | 0 mm | 2.68 m/s, 213° | 620 W/m² | - |
| 1778014174 | 27.78° C | 31% | 1015.6 hPa | 0 mm | 0.89 m/s, 159° | 637 W/m² | - |
| 1778013872 | 27.22° C | 30% | 1015.4 hPa | 0 mm | 1.34 m/s, 206° | 656 W/m² | - |
| 1778013569 | 26.67° C | 32% | 1015.6 hPa | 0 mm | 1.34 m/s, 255° | 676 W/m² | - |
| 1778013265 | 26.67° C | 30% | 1015.6 hPa | 0 mm | 2.68 m/s, 185° | 676 W/m² | - |
| 1778012961 | 26.67° C | 31% | 1015.5 hPa | 0 mm | 0.89 m/s, 200° | 708 W/m² | - |
| 1778012658 | 26.67° C | 30% | 1015.7 hPa | 0 mm | 1.79 m/s, 171° | 748 W/m² | - |
| 1778012354 | 26.67° C | 30% | 1015.8 hPa | 0 mm | 3.13 m/s, 201° | 644 W/m² | - |
| 1778012052 | 26.67° C | 31% | 1015.6 hPa | 0 mm | 0.89 m/s, 149° | 625 W/m² | - |
| 1778011750 | 26.67° C | 30% | 1015.7 hPa | 0 mm | 2.68 m/s, 200° | 792 W/m² | - |
| 1778011447 | 26.67° C | 31% | 1015.8 hPa | 0 mm | 1.79 m/s, 148° | 793 W/m² | - |
| 1778011142 | 26.67° C | 30% | 1015.9 hPa | 0 mm | 3.58 m/s, 147° | 828 W/m² | - |
| 1778010840 | 26.67° C | 30% | 1016.1 hPa | 0 mm | 0.89 m/s, 185° | 829 W/m² | - |
| 1778010536 | 26.67° C | 30% | 1016 hPa | 0 mm | 3.13 m/s, 152° | 797 W/m² | - |
| 1778010234 | 27.22° C | 31% | 1016.2 hPa | 0 mm | 0.89 m/s, 159° | 849 W/m² | - |
| 1778009934 | 27.22° C | 31% | 1016.3 hPa | 0 mm | 2.24 m/s, 247° | 859 W/m² | - |
| 1778009633 | 27.22° C | 31% | 1016.3 hPa | 0 mm | 1.79 m/s, 171° | 863 W/m² | - |
| 1778009330 | 26.67° C | 33% | 1016.2 hPa | 0 mm | 0.45 m/s, 271° | 915 W/m² | - |
| 1778009028 | 26.67° C | 33% | 1016.4 hPa | 0 mm | 1.34 m/s, 152° | 922 W/m² | - |
| 1778008725 | 26.11° C | 34% | 1016.4 hPa | 0 mm | 1.34 m/s, 179° | 1009 W/m² | - |
* Rain latest hour (hover to see other rain measurements)
** Current wind speed in m/s (hover to see current wind gust speed)